Location: Arrowhead Springs
(34.1867°N, 117.2617°W)
Time: 16:02:15
(UTC+00:00)

Cosmos 1939 Rocket - Pass Details

Date: 13 April 2024
Orbit: 515 x 558 km, 97.4° (Epoch: 26 May)

Event Time Altitude Azimuth Distance (km) Brightness Sun altitude
Rises 12:36:24 0° 8° (N) 2,637 6.7 -9.5°
Reaches altitude 10° 12:38:30 10° 5° (N) 1,746 5.7 -9.1°
Maximum altitude 12:42:14 66° 284° (WNW) 565 2.7 -8.3°
Drops below altitude 10° 12:45:57 10° 201° (SSW) 1,743 5.0 -7.6°
Sets 12:48:03 0° 199° (SSW) 2,632 5.9 -7.2°
